Weather History for Windom, MN

Change the Weather History Date:

Tuesday, April 9, 2013

  Actual Average Record
Temperature  
Mean Temperature 34 °F -  
Max Temperature 39 °F 50 °F 88 °F (1977)
Min Temperature 30 °F 30 °F 8 °F (1997)
Degree Days  
Heating Degree Days 30    
Moisture  
Dew Point 32 °F    
Average Humidity 94    
Maximum Humidity 100    
Minimum Humidity 87    
Precipitation  
Precipitation 1.46 in - - ()
Sea Level Pressure  
Sea Level Pressure 29.98 in    
Wind  
Wind Speed 17 mph (North)    
Max Wind Speed 30 mph    
Max Gust Speed 36 mph    
Visibility 6 miles    
Events Rain , Snow , Thunderstorm    
Averages and records for this station are not official NWS values.
T = Trace of Precipitation, MM = Missing Value Source: NWS Daily Summary

Daily Weather History Graph

Daily Weather History Graph

Search for Another Location

Airport:

Trip Planner

Search our weather history database for the weather conditions in past years. The results will help you decide how hot, cold, wet, or windy it might be!

Date:

Astronomy

Apr. 09, 2013 Rise Set
Actual Time 6:47 AM CDT 7:57 PM CDT
Civil Twilight 6:17 AM CDT 8:27 PM CDT
Nautical Twilight 5:42 AM CDT 9:02 PM CDT
Astronomical Twilight 5:04 AM CDT 9:40 PM CDT
Moon 6:11 AM CDT (4/9) 7:34 PM CDT (4/9)
Length of Visible Light 14h 09m
Length of Day
13h 10m
Waning Crescent, 1% of the Moon is Illuminated
Apr 9
Waning Crescent
Apr 10
New
Apr 18
First Quarter
Apr 25
Full
May 2
Last Quarter

Hourly Weather History & Observations

Time (CDT) Temp. Windchill Dew Point Humidity Pressure Visibility Wind Dir Wind Speed Gust Speed Precip Events Conditions
12:12 AM 39.2 °F 29.8 °F 37.4 °F 93% 29.96 in 7.0 mi NNE 18.4 mph 23.0 mph N/A   Overcast
12:33 AM 39.2 °F 29.8 °F 37.4 °F 93% 29.94 in 10.0 mi NNE 18.4 mph 24.2 mph N/A   Overcast
12:52 AM 39.2 °F 30.5 °F 37.4 °F 93% 29.96 in 10.0 mi NNE 16.1 mph 23.0 mph N/A   Overcast
1:12 AM 39.2 °F 30.2 °F 37.4 °F 93% 29.97 in 10.0 mi NNE 17.3 mph 25.3 mph N/A   Overcast
1:33 AM 39.2 °F 29.3 °F 37.4 °F 93% 29.95 in 10.0 mi NNE 20.7 mph 26.5 mph N/A   Overcast
1:52 AM 39.2 °F 29.3 °F 37.4 °F 93% 29.93 in 10.0 mi NNE 20.7 mph 28.8 mph N/A   Overcast
2:12 AM 39.2 °F 29.0 °F 37.4 °F 93% 29.94 in 10.0 mi NNE 21.9 mph 27.6 mph N/A   Overcast
2:33 AM 39.2 °F 29.6 °F 37.4 °F 93% 29.94 in 7.0 mi NNE 19.6 mph 25.3 mph N/A   Overcast
2:52 AM 39.2 °F 29.3 °F 37.4 °F 93% 29.92 in 7.0 mi NNE 20.7 mph 26.5 mph N/A   Overcast
3:12 AM 37.4 °F 26.1 °F 37.4 °F 100% 29.92 in 7.0 mi NNE 24.2 mph 31.1 mph N/A   Overcast
3:33 AM 37.4 °F 27.8 °F 35.6 °F 93% 29.97 in 7.0 mi NNE 17.3 mph 29.9 mph N/A   Overcast
3:52 AM 37.4 °F 26.9 °F 35.6 °F 93% 29.95 in 7.0 mi North 20.7 mph - N/A   Overcast
4:12 AM 37.4 °F 27.8 °F 35.6 °F 93% 29.97 in 7.0 mi NNE 17.3 mph 24.2 mph N/A   Drizzle
4:33 AM 37.4 °F 27.8 °F 35.6 °F 93% 29.95 in 4.0 mi NNE 17.3 mph 24.2 mph 0.01 in Rain Light Rain
4:52 AM 35.6 °F 24.0 °F 35.6 °F 100% 29.93 in 5.0 mi NNE 23.0 mph 26.5 mph 0.05 in Rain Rain
5:12 AM 35.6 °F 23.4 °F 35.6 °F 100% 29.90 in 5.0 mi NNE 25.3 mph 34.5 mph 0.02 in Rain Rain
5:33 AM 35.6 °F 23.7 °F 35.6 °F 100% 29.92 in 7.0 mi NNE 24.2 mph 28.8 mph 0.02 in Rain Light Rain
5:52 AM 35.6 °F 24.5 °F 35.6 °F 100% 29.93 in 7.0 mi NNE 20.7 mph 35.7 mph 0.02 in   Overcast
6:12 AM 35.6 °F 24.2 °F 35.6 °F 100% 29.91 in 7.0 mi NNE 21.9 mph 28.8 mph N/A Rain Light Rain
6:33 AM 35.6 °F 24.0 °F 33.8 °F 93% 29.93 in 5.0 mi NNE 23.0 mph 31.1 mph 0.01 in Rain Light Rain
6:52 AM 35.6 °F 24.0 °F 33.8 °F 93% 29.95 in 4.0 mi North 23.0 mph 31.1 mph 0.03 in Rain Rain
7:12 AM 35.6 °F 22.5 °F 33.8 °F 93% 29.93 in 2.5 mi North 29.9 mph 35.7 mph 0.06 in Thunderstorm Overcast
7:33 AM 33.8 °F 20.5 °F 33.8 °F 100% 29.93 in 3.0 mi North 27.6 mph 32.2 mph 0.13 in Rain Heavy Rain
7:52 AM 33.8 °F 20.3 °F 33.8 °F 100% 29.93 in 2.0 mi North 28.8 mph 34.5 mph 0.19 in Snow , Thunderstorm Snow
8:12 AM 33.8 °F 20.5 °F 32.0 °F 93% 29.94 in 2.5 mi North 27.6 mph 35.7 mph 0.06 in   Overcast
8:33 AM 32.0 °F 19.2 °F 32.0 °F 100% 29.98 in 2.0 mi North 23.0 mph 29.9 mph 0.16 in   Overcast
8:52 AM 32.0 °F 18.6 °F 30.2 °F 93% 29.95 in 2.0 mi North 25.3 mph 33.4 mph 0.26 in   Overcast
9:12 AM 32.0 °F 19.2 °F 30.2 °F 93% 29.94 in 2.0 mi North 23.0 mph 31.1 mph 0.08 in   Overcast
9:33 AM 32.0 °F 20.5 °F 30.2 °F 93% 29.97 in 4.0 mi North 18.4 mph - 0.11 in   Overcast
9:52 AM 32.0 °F 21.6 °F 30.2 °F 93% 29.98 in 2.0 mi North 15.0 mph - 0.15 in   Overcast
10:12 AM 32.0 °F 21.2 °F 30.2 °F 93% 29.96 in 3.0 mi North 16.1 mph - 0.02 in   Overcast
10:33 AM 32.0 °F 22.1 °F 30.2 °F 93% 29.98 in 7.0 mi North 13.8 mph - 0.03 in   Overcast
10:52 AM 30.2 °F 20.2 °F 30.2 °F 100% 29.98 in 3.0 mi North 12.7 mph - 0.04 in   Overcast
11:12 AM 30.2 °F 20.2 °F 30.2 °F 100% 29.99 in 7.0 mi North 12.7 mph - N/A   Overcast
11:33 AM 30.2 °F 20.8 °F 30.2 °F 100% 30.01 in 7.0 mi North 11.5 mph - N/A   Overcast
11:52 AM 30.2 °F 20.2 °F 30.2 °F 100% 30.01 in 7.0 mi North 12.7 mph - N/A   Overcast
12:12 PM 30.2 °F 20.8 °F 30.2 °F 100% 30.01 in 3.0 mi North 11.5 mph - N/A   Overcast
12:33 PM 30.2 °F 21.3 °F 30.2 °F 100% 30.00 in 4.0 mi North 10.4 mph - N/A Snow Light Snow
12:52 PM 30.2 °F 20.8 °F 30.2 °F 100% 29.98 in 5.0 mi North 11.5 mph - N/A   Overcast
1:12 PM 30.2 °F 20.2 °F 28.4 °F 93% 29.98 in 10.0 mi North 12.7 mph - N/A   Overcast
1:33 PM 30.2 °F 21.3 °F 28.4 °F 93% 30.00 in 10.0 mi North 10.4 mph - N/A   Overcast
1:52 PM 30.2 °F 21.3 °F 28.4 °F 93% 30.00 in 10.0 mi North 10.4 mph - N/A   Overcast
2:12 PM 30.2 °F 20.8 °F 28.4 °F 93% 30.01 in 10.0 mi North 11.5 mph - N/A   Overcast
2:33 PM 30.2 °F 20.8 °F 28.4 °F 93% 29.99 in 5.0 mi North 11.5 mph - N/A   Overcast
2:52 PM 30.2 °F 20.2 °F 28.4 °F 93% 29.97 in 2.0 mi North 12.7 mph - N/A   Overcast
3:12 PM 30.2 °F 20.8 °F 28.4 °F 93% 30.00 in 5.0 mi North 11.5 mph - N/A   Overcast
3:33 PM 30.2 °F 21.9 °F 28.4 °F 93% 30.03 in 7.0 mi North 9.2 mph - N/A   Overcast
3:52 PM 30.2 °F 21.9 °F 28.4 °F 93% 30.03 in 10.0 mi North 9.2 mph - N/A   Overcast
4:12 PM 30.2 °F 21.3 °F 28.4 °F 93% 30.06 in 10.0 mi North 10.4 mph - N/A   Overcast
4:33 PM 30.2 °F 21.9 °F 28.4 °F 93% 30.03 in 5.0 mi North 9.2 mph - N/A Thunderstorm Overcast
4:52 PM 30.2 °F 22.6 °F 28.4 °F 93% 30.03 in 4.0 mi North 8.1 mph - N/A   Overcast
5:12 PM 30.2 °F 21.3 °F 28.4 °F 93% 30.01 in 4.0 mi North 10.4 mph - N/A   Overcast
5:33 PM 30.2 °F 20.8 °F 28.4 °F 93% 29.98 in 5.0 mi North 11.5 mph - N/A   Overcast
5:52 PM 30.2 °F 21.3 °F 28.4 °F 93% 29.98 in 10.0 mi North 10.4 mph 16.1 mph N/A Thunderstorm Overcast
6:12 PM 32.0 °F 24.2 °F 30.2 °F 93% 29.99 in 10.0 mi North 9.2 mph - N/A   Overcast
6:33 PM 32.0 °F 23.6 °F 30.2 °F 93% 29.96 in 7.0 mi North 10.4 mph - 0.02 in   Overcast
6:52 PM 32.0 °F 23.6 °F 30.2 °F 93% 29.96 in 10.0 mi North 10.4 mph - 0.02 in   Overcast
7:12 PM 33.8 °F 26.4 °F 30.2 °F 87% 29.98 in 5.0 mi North 9.2 mph - 0.02 in   Overcast
7:33 PM 33.8 °F 27.0 °F 30.2 °F 87% 29.97 in 7.0 mi North 8.1 mph - 0.05 in Thunderstorm Overcast
7:52 PM 33.8 °F 27.7 °F 30.2 °F 87% 30.00 in 5.0 mi North 6.9 mph - 0.09 in Thunderstorm Thunderstorm
8:12 PM 33.8 °F 28.6 °F 30.2 °F 87% 30.03 in 4.0 mi North 5.8 mph - 0.04 in   Overcast
8:33 PM 33.8 °F 26.4 °F 30.2 °F 87% 29.95 in 2.0 mi North 9.2 mph - 0.13 in Thunderstorm Overcast
8:52 PM 33.8 °F 29.6 °F 30.2 °F 87% 30.08 in 5.0 mi NNW 4.6 mph - 0.15 in Thunderstorm Thunderstorm
9:12 PM 33.8 °F 27.7 °F 30.2 °F 87% 30.07 in 3.0 mi North 6.9 mph - 0.07 in Thunderstorm Thunderstorm
9:33 PM 32.0 °F 26.4 °F 30.2 °F 93% 30.07 in 3.0 mi North 5.8 mph - 0.16 in Thunderstorm Overcast
9:52 PM 32.0 °F 25.6 °F 30.2 °F 93% 30.06 in 3.0 mi North 6.9 mph - 0.24 in Thunderstorm Thunderstorm
10:12 PM 33.8 °F 27.7 °F 30.2 °F 87% 30.05 in 4.0 mi North 6.9 mph - 0.06 in   Overcast
10:33 PM 32.0 °F 24.8 °F 30.2 °F 93% 30.04 in 4.0 mi North 8.1 mph - 0.12 in   Overcast
10:52 PM 32.0 °F 24.8 °F 30.2 °F 93% 30.06 in 4.0 mi North 8.1 mph - 0.14 in   Overcast
11:12 PM 32.0 °F 26.4 °F 32.0 °F 100% 30.09 in 4.0 mi North 5.8 mph - 0.02 in   Overcast
11:33 PM 32.0 °F 25.6 °F 32.0 °F 100% 30.06 in 4.0 mi North 6.9 mph - 0.05 in Thunderstorm Overcast
11:52 PM 33.8 °F 27.7 °F 32.0 °F 93% 30.07 in 4.0 mi NNE 6.9 mph - 0.08 in   Overcast